Time,TemperatureF,DewpointF,PressureIn,WindDirection,WindDirectionDegrees,WindSpeedMPH,WindSpeedGustMPH,Humidity,HourlyPrecipIn,Conditions,Clouds,dailyrainin,SoftwareType,DateUTC
2013-03-28 00:02:00,52.0,48.0,-100.00,ENE,67,0.0,1.0,86,-99.99,,,-99.99,,2013-03-28 07:02:00,
2013-03-28 00:12:00,52.0,48.0,-100.00,ENE,64,2.0,3.0,87,-99.99,,,-99.99,,2013-03-28 07:12:00,
2013-03-28 00:22:00,52.0,48.0,-100.00,ENE,59,3.0,4.0,87,-99.99,,,-99.99,,2013-03-28 07:22:00,
2013-03-28 00:32:00,51.0,48.0,-100.00,NE,51,3.0,3.0,88,-99.99,,,-99.99,,2013-03-28 07:32:00,
2013-03-28 00:42:00,51.0,48.0,-100.00,NE,49,2.0,3.0,89,-99.99,,,-99.99,,2013-03-28 07:42:00,
2013-03-28 00:52:00,51.0,48.0,-100.00,ENE,71,2.0,3.0,89,-99.99,,,-99.99,,2013-03-28 07:52:00,
2013-03-28 01:02:00,51.0,48.0,-100.00,NE,49,3.0,4.0,89,-99.99,,,-99.99,,2013-03-28 08:02:00,
2013-03-28 01:11:00,51.0,48.0,-100.00,NE,43,4.0,6.0,88,-99.99,,,-99.99,,2013-03-28 08:11:00,
2013-03-28 01:21:00,52.0,49.0,-100.00,NE,37,4.0,7.0,88,-99.99,,,-99.99,,2013-03-28 08:21:00,
2013-03-28 01:32:00,52.0,49.0,-100.00,NE,37,4.0,7.0,88,-99.99,,,-99.99,,2013-03-28 08:32:00,
2013-03-28 01:42:00,52.0,49.0,-100.00,NE,38,4.0,7.0,88,-99.99,,,-99.99,,2013-03-28 08:42:00,
2013-03-28 01:52:00,52.0,49.0,-100.00,NE,49,4.0,5.0,88,-99.99,,,-99.99,,2013-03-28 08:52:00,
2013-03-28 02:01:00,52.0,49.0,-100.00,NE,45,4.0,5.0,88,-99.99,,,-99.99,,2013-03-28 09:01:00,
2013-03-28 02:11:00,53.0,50.0,-100.00,NE,55,3.0,4.0,88,-99.99,,,-99.99,,2013-03-28 09:11:00,
2013-03-28 02:22:00,53.0,50.0,-100.00,NE,46,2.0,4.0,88,-99.99,,,-99.99,,2013-03-28 09:22:00,
2013-03-28 02:32:00,53.0,50.0,-100.00,ENE,68,2.0,3.0,89,-99.99,,,-99.99,,2013-03-28 09:32:00,
2013-03-28 02:42:00,53.0,50.0,-100.00,NE,44,2.0,3.0,89,-99.99,,,-99.99,,2013-03-28 09:42:00,
2013-03-28 02:52:00,53.0,50.0,-100.00,NE,53,1.0,3.0,89,-99.99,,,-99.99,,2013-03-28 09:52:00,
2013-03-28 03:02:00,53.0,50.0,-100.00,NE,44,3.0,4.0,89,-99.99,,,-99.99,,2013-03-28 10:02:00,
2013-03-28 03:12:00,53.0,50.0,-100.00,NE,56,2.0,4.0,89,-99.99,,,-99.99,,2013-03-28 10:12:00,
2013-03-28 03:22:00,53.0,50.0,-100.00,NE,53,2.0,4.0,89,-99.99,,,-99.99,,2013-03-28 10:22:00,
2013-03-28 03:32:00,53.0,50.0,-100.00,NNE,30,4.0,6.0,89,-99.99,,,-99.99,,2013-03-28 10:32:00,
2013-03-28 03:42:00,53.0,50.0,-100.00,NNE,14,3.0,5.0,89,-99.99,,,-99.99,,2013-03-28 10:42:00,
2013-03-28 03:52:00,53.0,50.0,-100.00,NNE,24,2.0,3.0,89,-99.99,,,-99.99,,2013-03-28 10:52:00,
2013-03-28 04:02:00,53.0,50.0,-100.00,NNE,32,2.0,3.0,89,-99.99,,,-99.99,,2013-03-28 11:02:00,
2013-03-28 04:12:00,53.0,50.0,-100.00,ENE,65,2.0,3.0,89,-99.99,,,-99.99,,2013-03-28 11:12:00,
2013-03-28 04:22:00,53.0,50.0,-100.00,ENE,62,3.0,4.0,90,-99.99,,,-99.99,,2013-03-28 11:22:00,
2013-03-28 04:32:00,52.0,49.0,-100.00,NE,55,4.0,6.0,90,-99.99,,,-99.99,,2013-03-28 11:32:00,
2013-03-28 04:42:00,52.0,49.0,-100.00,NE,56,4.0,6.0,91,-99.99,,,-99.99,,2013-03-28 11:42:00,
2013-03-28 04:52:00,52.0,49.0,-100.00,ENE,65,4.0,5.0,91,-99.99,,,-99.99,,2013-03-28 11:52:00,
2013-03-28 05:02:00,52.0,49.0,-100.00,ENE,59,4.0,5.0,91,-99.99,,,-99.99,,2013-03-28 12:02:00,
2013-03-28 05:12:00,51.0,49.0,-100.00,NE,52,4.0,5.0,92,-99.99,,,-99.99,,2013-03-28 12:12:00,
2013-03-28 05:22:00,51.0,49.0,-100.00,NE,50,3.0,4.0,92,-99.99,,,-99.99,,2013-03-28 12:22:00,
2013-03-28 05:32:00,51.0,49.0,-100.00,NE,37,3.0,5.0,92,-99.99,,,-99.99,,2013-03-28 12:32:00,
2013-03-28 05:42:00,51.0,49.0,-100.00,NNE,26,3.0,4.0,92,-99.99,,,-99.99,,2013-03-28 12:42:00,
2013-03-28 05:51:00,51.0,49.0,-100.00,NNE,16,3.0,5.0,92,-99.99,,,-99.99,,2013-03-28 12:51:00,
2013-03-28 06:02:00,51.0,49.0,-100.00,NNE,18,3.0,4.0,92,-99.99,,,-99.99,,2013-03-28 13:02:00,
2013-03-28 06:12:00,51.0,49.0,-100.00,NNE,32,3.0,5.0,92,-99.99,,,-99.99,,2013-03-28 13:12:00,
2013-03-28 06:22:00,51.0,49.0,-100.00,North,6,3.0,4.0,92,-99.99,,,-99.99,,2013-03-28 13:22:00,
2013-03-28 06:32:00,51.0,49.0,-100.00,North,5,4.0,6.0,92,-99.99,,,-99.99,,2013-03-28 13:32:00,
2013-03-28 06:41:00,51.0,49.0,-100.00,NE,37,3.0,4.0,92,-99.99,,,-99.99,,2013-03-28 13:41:00,
2013-03-28 06:52:00,51.0,49.0,-100.00,NE,39,4.0,5.0,92,-99.99,,,-99.99,,2013-03-28 13:52:00,
2013-03-28 07:02:00,51.0,49.0,-100.00,NE,39,4.0,5.0,92,-99.99,,,-99.99,,2013-03-28 14:02:00,
2013-03-28 07:12:00,51.0,49.0,-100.00,NE,38,3.0,6.0,93,-99.99,,,-99.99,,2013-03-28 14:12:00,
2013-03-28 07:22:00,51.0,49.0,-100.00,NNE,26,5.0,7.0,93,-99.99,,,-99.99,,2013-03-28 14:22:00,
2013-03-28 07:32:00,51.0,49.0,-100.00,NNE,26,5.0,7.0,93,-99.99,,,-99.99,,2013-03-28 14:32:00,
2013-03-28 07:42:00,50.0,48.0,-100.00,NE,42,4.0,6.0,93,-99.99,,,-99.99,,2013-03-28 14:42:00,
2013-03-28 07:51:00,50.0,48.0,-100.00,NE,42,4.0,6.0,93,-99.99,,,-99.99,,2013-03-28 14:51:00,
2013-03-28 08:02:00,50.0,48.0,-100.00,East,83,3.0,3.0,94,-99.99,,,-99.99,,2013-03-28 15:02:00,
2013-03-28 08:11:00,50.0,48.0,-100.00,East,80,2.0,3.0,94,-99.99,,,-99.99,,2013-03-28 15:11:00,
2013-03-28 08:21:00,50.0,48.0,-100.00,ESE,114,2.0,3.0,94,-99.99,,,-99.99,,2013-03-28 15:21:00,
2013-03-28 08:32:00,51.0,49.0,-100.00,ENE,67,1.0,2.0,94,-99.99,,,-99.99,,2013-03-28 15:32:00,
2013-03-28 08:43:00,51.0,49.0,-100.00,NE,43,2.0,3.0,94,-99.99,,,-99.99,,2013-03-28 15:43:00,
2013-03-28 08:52:00,52.0,50.0,-100.00,WNW,293,2.0,5.0,93,-99.99,,,-99.99,,2013-03-28 15:52:00,
2013-03-28 09:02:00,52.0,50.0,-100.00,North,354,2.0,5.0,92,-99.99,,,-99.99,,2013-03-28 16:02:00,
2013-03-28 09:12:00,52.0,50.0,-100.00,North,11,2.0,4.0,92,-99.99,,,-99.99,,2013-03-28 16:12:00,
2013-03-28 09:22:00,53.0,50.0,-100.00,NE,36,3.0,6.0,91,-99.99,,,-99.99,,2013-03-28 16:22:00,
2013-03-28 09:32:00,53.0,50.0,-100.00,North,355,4.0,9.0,89,-99.99,,,-99.99,,2013-03-28 16:32:00,
2013-03-28 09:42:00,54.0,50.0,-100.00,NNW,341,3.0,5.0,87,-99.99,,,-99.99,,2013-03-28 16:42:00,
2013-03-28 09:52:00,55.0,51.0,-100.00,NW,309,4.0,6.0,85,-99.99,,,-99.99,,2013-03-28 16:52:00,
2013-03-28 10:02:00,55.0,50.0,-100.00,NW,325,4.0,6.0,84,-99.99,,,-99.99,,2013-03-28 17:02:00,
2013-03-28 10:12:00,56.0,51.0,-100.00,NW,314,5.0,7.0,82,-99.99,,,-99.99,,2013-03-28 17:12:00,
2013-03-28 10:21:00,57.0,51.0,-100.00,WNW,301,4.0,7.0,80,-99.99,,,-99.99,,2013-03-28 17:21:00,
2013-03-28 10:32:00,58.0,50.0,-100.00,WNW,284,3.0,7.0,76,-99.99,,,-99.99,,2013-03-28 17:32:00,
2013-03-28 10:42:00,59.0,50.0,-100.00,West,265,3.0,6.0,73,-99.99,,,-99.99,,2013-03-28 17:42:00,
2013-03-28 10:52:00,60.0,50.0,-100.00,SW,221,4.0,7.0,70,-99.99,,,-99.99,,2013-03-28 17:52:00,
2013-03-28 11:02:00,61.0,50.0,-100.00,SW,228,2.0,5.0,68,-99.99,,,-99.99,,2013-03-28 18:02:00,
2013-03-28 11:12:00,62.0,50.0,-100.00,West,279,3.0,6.0,65,-99.99,,,-99.99,,2013-03-28 18:12:00,
2013-03-28 11:22:00,64.0,51.0,-100.00,SSE,159,2.0,6.0,62,-99.99,,,-99.99,,2013-03-28 18:22:00,
2013-03-28 11:32:00,64.0,50.0,-100.00,South,172,3.0,5.0,61,-99.99,,,-99.99,,2013-03-28 18:32:00,
2013-03-28 11:42:00,65.0,50.0,-100.00,South,184,3.0,8.0,59,-99.99,,,-99.99,,2013-03-28 18:42:00,
2013-03-28 11:52:00,66.0,51.0,-100.00,South,179,5.0,8.0,58,-99.99,,,-99.99,,2013-03-28 18:52:00,
2013-03-28 12:01:00,66.0,51.0,-100.00,South,187,4.0,8.0,58,-99.99,,,-99.99,,2013-03-28 19:01:00,
2013-03-28 12:12:00,66.0,51.0,-100.00,SSW,196,5.0,8.0,59,-99.99,,,-99.99,,2013-03-28 19:12:00,
2013-03-28 12:22:00,67.0,52.0,-100.00,SSW,198,6.0,10.0,58,-99.99,,,-99.99,,2013-03-28 19:22:00,
2013-03-28 12:32:00,67.0,52.0,-100.00,SSW,211,7.0,11.0,58,-99.99,,,-99.99,,2013-03-28 19:32:00,
2013-03-28 12:42:00,67.0,52.0,-100.00,SSW,196,6.0,9.0,59,-99.99,,,-99.99,,2013-03-28 19:42:00,
2013-03-28 12:52:00,68.0,52.0,-100.00,SSW,194,7.0,11.0,57,-99.99,,,-99.99,,2013-03-28 19:52:00,
2013-03-28 13:02:00,68.0,52.0,-100.00,SSW,209,8.0,12.0,57,-99.99,,,-99.99,,2013-03-28 20:02:00,
2013-03-28 13:12:00,68.0,53.0,-100.00,SSW,205,8.0,12.0,59,-99.99,,,-99.99,,2013-03-28 20:12:00,
2013-03-28 13:22:00,67.0,53.0,-100.00,SSW,211,7.0,12.0,60,-99.99,,,-99.99,,2013-03-28 20:22:00,
2013-03-28 13:32:00,67.0,52.0,-100.00,SSW,205,8.0,11.0,59,-99.99,,,-99.99,,2013-03-28 20:32:00,
2013-03-28 13:42:00,69.0,53.0,-100.00,SSW,205,7.0,12.0,56,-99.99,,,-99.99,,2013-03-28 20:42:00,
2013-03-28 13:52:00,68.0,52.0,-100.00,SSW,207,8.0,12.0,56,-99.99,,,-99.99,,2013-03-28 20:52:00,
2013-03-28 14:02:00,68.0,52.0,-100.00,SSW,207,8.0,12.0,56,-99.99,,,-99.99,,2013-03-28 21:02:00,
2013-03-28 14:12:00,68.0,52.0,-100.00,SSW,207,8.0,11.0,56,-99.99,,,-99.99,,2013-03-28 21:12:00,
2013-03-28 14:22:00,68.0,51.0,-100.00,SSW,212,9.0,12.0,55,-99.99,,,-99.99,,2013-03-28 21:22:00,
2013-03-28 14:32:00,68.0,51.0,-100.00,SSW,207,9.0,12.0,55,-99.99,,,-99.99,,2013-03-28 21:32:00,
2013-03-28 14:42:00,68.0,51.0,-100.00,SSW,206,9.0,12.0,54,-99.99,,,-99.99,,2013-03-28 21:42:00,
2013-03-28 14:52:00,68.0,51.0,-100.00,SW,223,9.0,14.0,54,-99.99,,,-99.99,,2013-03-28 21:52:00,
2013-03-28 15:02:00,67.0,50.0,-100.00,SSW,208,9.0,14.0,55,-99.99,,,-99.99,,2013-03-28 22:02:00,
2013-03-28 15:12:00,67.0,51.0,-100.00,SW,218,8.0,13.0,56,-99.99,,,-99.99,,2013-03-28 22:12:00,
2013-03-28 15:22:00,66.0,50.0,-100.00,SW,217,10.0,14.0,57,-99.99,,,-99.99,,2013-03-28 22:22:00,
2013-03-28 15:32:00,66.0,50.0,-100.00,SW,217,7.0,12.0,57,-99.99,,,-99.99,,2013-03-28 22:32:00,
2013-03-28 15:42:00,66.0,50.0,-100.00,SSW,211,7.0,12.0,57,-99.99,,,-99.99,,2013-03-28 22:42:00,
2013-03-28 15:52:00,66.0,51.0,-100.00,SSW,213,7.0,10.0,59,-99.99,,,-99.99,,2013-03-28 22:52:00,
2013-03-28 16:02:00,66.0,52.0,-100.00,SSW,208,8.0,12.0,60,-99.99,,,-99.99,,2013-03-28 23:02:00,
2013-03-28 16:12:00,65.0,51.0,-100.00,SSW,208,9.0,13.0,61,-99.99,,,-99.99,,2013-03-28 23:12:00,
2013-03-28 16:21:00,65.0,52.0,-100.00,SW,215,8.0,12.0,62,-99.99,,,-99.99,,2013-03-28 23:21:00,
2013-03-28 16:32:00,66.0,51.0,-100.00,SSW,204,6.0,10.0,59,-99.99,,,-99.99,,2013-03-28 23:32:00,
2013-03-28 16:42:00,66.0,51.0,-100.00,SSW,203,6.0,10.0,58,-99.99,,,-99.99,,2013-03-28 23:42:00,
2013-03-28 16:52:00,66.0,51.0,-100.00,SSW,203,6.0,8.0,59,-99.99,,,-99.99,,2013-03-28 23:52:00,
2013-03-28 17:02:00,66.0,52.0,-100.00,SSW,208,6.0,9.0,61,-99.99,,,-99.99,,2013-03-29 00:02:00,
2013-03-28 17:11:00,66.0,53.0,-100.00,SW,215,7.0,11.0,62,-99.99,,,-99.99,,2013-03-29 00:11:00,
2013-03-28 17:22:00,65.0,53.0,-100.00,SSW,210,8.0,12.0,65,-99.99,,,-99.99,,2013-03-29 00:22:00,
2013-03-28 17:32:00,64.0,53.0,-100.00,SSW,207,7.0,10.0,68,-99.99,,,-99.99,,2013-03-29 00:32:00,
2013-03-28 17:52:00,64.0,53.0,-100.00,SSW,193,6.0,9.0,68,-99.99,,,-99.99,,2013-03-29 00:52:00,
2013-03-28 18:02:00,65.0,54.0,-100.00,SSW,196,4.0,6.0,67,-99.99,,,-99.99,,2013-03-29 01:02:00,
2013-03-28 18:12:00,66.0,53.0,-100.00,South,191,3.0,4.0,64,-99.99,,,-99.99,,2013-03-29 01:12:00,
2013-03-28 18:22:00,67.0,53.0,-100.00,SSW,199,3.0,4.0,61,-99.99,,,-99.99,,2013-03-29 01:22:00,
2013-03-28 18:31:00,68.0,54.0,-100.00,SW,225,3.0,5.0,60,-99.99,,,-99.99,,2013-03-29 01:31:00,
2013-03-28 18:42:00,68.0,53.0,-100.00,WSW,245,3.0,6.0,59,-99.99,,,-99.99,,2013-03-29 01:42:00,
2013-03-28 18:52:00,68.0,52.0,-100.00,WNW,298,4.0,7.0,57,-99.99,,,-99.99,,2013-03-29 01:52:00,
2013-03-28 19:02:00,68.0,52.0,-100.00,NW,323,2.0,5.0,56,-99.99,,,-99.99,,2013-03-29 02:02:00,
2013-03-28 19:11:00,69.0,52.0,-100.00,NNW,340,1.0,4.0,55,-99.99,,,-99.99,,2013-03-29 02:11:00,
2013-03-28 19:21:00,68.0,53.0,-100.00,WNW,295,2.0,4.0,58,-99.99,,,-99.99,,2013-03-29 02:21:00,
2013-03-28 19:32:00,66.0,53.0,-100.00,WSW,241,4.0,5.0,64,-99.99,,,-99.99,,2013-03-29 02:32:00,
2013-03-28 19:42:00,64.0,53.0,-100.00,SW,224,2.0,3.0,68,-99.99,,,-99.99,,2013-03-29 02:42:00,
2013-03-28 19:52:00,63.0,53.0,-100.00,WSW,238,1.0,3.0,70,-99.99,,,-99.99,,2013-03-29 02:52:00,
2013-03-28 20:02:00,63.0,53.0,-100.00,SSW,198,1.0,2.0,71,-99.99,,,-99.99,,2013-03-29 03:02:00,
2013-03-28 20:12:00,62.0,53.0,-100.00,ESE,119,0.0,1.0,72,-99.99,,,-99.99,,2013-03-29 03:12:00,
2013-03-28 20:21:00,61.0,53.0,-100.00,NNW,348,1.0,3.0,74,-99.99,,,-99.99,,2013-03-29 03:21:00,
2013-03-28 20:32:00,60.0,52.0,-100.00,SW,217,2.0,4.0,76,-99.99,,,-99.99,,2013-03-29 03:32:00,
2013-03-28 20:42:00,59.0,53.0,-100.00,SW,222,3.0,4.0,81,-99.99,,,-99.99,,2013-03-29 03:42:00,
2013-03-28 20:52:00,58.0,53.0,-100.00,WSW,242,1.0,4.0,84,-99.99,,,-99.99,,2013-03-29 03:52:00,
2013-03-28 21:02:00,58.0,53.0,-100.00,ENE,76,1.0,2.0,84,-99.99,,,-99.99,,2013-03-29 04:02:00,
2013-03-28 21:12:00,57.0,52.0,-100.00,SSW,209,1.0,2.0,84,-99.99,,,-99.99,,2013-03-29 04:12:00,
2013-03-28 21:22:00,57.0,53.0,-100.00,SW,219,1.0,3.0,85,-99.99,,,-99.99,,2013-03-29 04:22:00,
2013-03-28 21:32:00,56.0,52.0,-100.00,SW,218,3.0,5.0,87,-99.99,,,-99.99,,2013-03-29 04:32:00,
2013-03-28 21:42:00,56.0,53.0,-100.00,SSW,195,2.0,4.0,89,-99.99,,,-99.99,,2013-03-29 04:42:00,
2013-03-28 21:52:00,56.0,53.0,-100.00,North,353,1.0,3.0,90,-99.99,,,-99.99,,2013-03-29 04:52:00,
2013-03-28 22:02:00,56.0,53.0,-100.00,NE,53,2.0,2.0,90,-99.99,,,-99.99,,2013-03-29 05:02:00,
2013-03-28 22:12:00,56.0,53.0,-100.00,East,92,2.0,5.0,91,-99.99,,,-99.99,,2013-03-29 05:12:00,
2013-03-28 22:22:00,56.0,54.0,-100.00,ESE,118,3.0,7.0,92,-99.99,,,-99.99,,2013-03-29 05:22:00,
2013-03-28 22:32:00,56.0,54.0,-100.00,SE,135,3.0,7.0,93,-99.99,,,-99.99,,2013-03-29 05:32:00,
2013-03-28 22:42:00,56.0,54.0,-100.00,SE,143,2.0,5.0,93,-99.99,,,-99.99,,2013-03-29 05:42:00,
2013-03-28 22:52:00,56.0,54.0,-100.00,SE,139,3.0,6.0,94,-99.99,,,-99.99,,2013-03-29 05:52:00,
2013-03-28 23:02:00,56.0,54.0,-100.00,SE,138,2.0,5.0,94,-99.99,,,-99.99,,2013-03-29 06:02:00,
2013-03-28 23:12:00,57.0,55.0,-100.00,SSE,157,3.0,5.0,94,-99.99,,,-99.99,,2013-03-29 06:12:00,
2013-03-28 23:22:00,56.0,54.0,-100.00,SSE,161,3.0,6.0,93,-99.99,,,-99.99,,2013-03-29 06:22:00,
2013-03-28 23:32:00,56.0,54.0,-100.00,SSE,161,4.0,6.0,93,-99.99,,,-99.99,,2013-03-29 06:32:00,
2013-03-28 23:42:00,56.0,54.0,-100.00,SE,126,3.0,5.0,93,-99.99,,,-99.99,,2013-03-29 06:42:00,
2013-03-28 23:52:00,56.0,54.0,-100.00,SSE,151,3.0,5.0,93,-99.99,,,-99.99,,2013-03-29 06:52:00,